EW3204 Weather Reports


time (UTC)temp
F
wind
direction
speed
knots
gust
knots
rain 1hr
in
rain 24hr
in
rain mn
in
humidity
%
barometer
mb
20260903091531 78 115 2.6 0.0 0.00 0.00 0.00 6 1007.7
20260903090026 77 173 1.7 0.0 0.00 0.00 0.00 6 1007.8
20260903084521 78 136 1.7 0.0 0.00 0.00 0.00 6 1007.9
20260903083032 80 292 2.6 0.0 0.00 0.00 0.00 4 1007.9
20260903081524 80 258 3.5 0.0 0.00 0.00 0.00 5 1008.0
20260903080009 80 251 3.5 0.0 0.00 0.00 0.00 5 1008.0
20260903074505 78 230 1.7 0.0 0.00 0.00 0.00 8 1008.2
20260903073010 78 186 0.9 0.0 0.00 0.00 0.00 9 1008.2
20260903071502 80 114 3.5 0.0 0.00 0.00 0.00 9 1008.3
20260903070100 80 213 2.6 0.0 0.00 0.00 0.00 5 1008.2
20260903064553 80 263 3.5 0.0 0.00 0.00 0.00 4 1008.1
20260903063114 80 157 1.7 0.0 0.00 0.00 0.00 8 1008.2
20260903061552 81 247 3.5 0.0 0.00 0.00 0.00 5 1008.3
20260903054550 82 262 6.1 0.0 0.00 0.00 0.00 6 1008.4
20260903053049 83 232 9.6 0.0 0.00 0.00 0.00 6 1008.6
20260903051621 82 275 9.6 0.0 0.00 0.00 0.00 7 1008.6
20260903050108 82 277 11.3 0.0 0.00 0.00 0.00 7 1008.6
20260903044546 82 319 9.6 0.0 0.00 0.00 0.00 8 1008.6
20260903044516 82 297 9.6 0.0 0.00 0.00 0.00 8 1008.6
20260903043044 82 294 6.1 0.0 0.00 0.00 0.00 8 1008.6
20260903041545 82 281 5.2 0.0 0.00 0.00 0.00 9 1008.4
20260903040024 83 267 6.1 0.0 0.00 0.00 0.00 9 1008.3
20260903034528 84 303 3.5 0.0 0.00 0.00 0.00 8 1008.1
20260903033023 85 306 7.0 0.0 0.00 0.00 0.00 7 1007.6
20260903031522 86 260 9.6 0.0 0.00 0.00 0.00 8 1007.4
20260903030023 86 271 12.2 0.0 0.00 0.00 0.00 8 1007.4
20260903024546 87 283 10.4 0.0 0.00 0.00 0.00 9 1007.3
20260903023154 87 265 11.3 0.0 0.00 0.00 0.00 10 1007.1
20260903021522 88 248 11.3 0.0 0.00 0.00 0.00 12 1007.0
20260903020019 88 308 8.7 0.0 0.00 0.00 0.00 14 1007.0
20260903014650 88 286 11.3 0.0 0.00 0.00 0.00 13 1007.0
20260903013018 90 342 12.2 0.0 0.00 0.00 0.00 13 1006.9
20260903011517 92 319 9.6 0.0 0.00 0.00 0.00 11 1006.9
20260903010025 93 7 9.6 0.0 0.00 0.00 0.00 10 1006.8
20260903004516 94 316 8.7 0.0 0.00 0.00 0.00 8 1006.9
20260903003015 94 326 7.8 0.0 0.00 0.00 0.00 8 1006.8
20260903001514 95 263 7.8 0.0 0.00 0.00 0.00 9 1006.7
20260903000018 95 246 9.6 0.0 0.00 0.00 0.00 9 1006.8
20260902234516 95 270 12.2 0.0 0.00 0.00 0.00 9 1006.8
20260902233011 96 267 11.3 0.0 0.00 0.00 0.00 8 1006.8
20260902231525 96 288 12.2 0.0 0.00 0.00 0.00 7 1006.8
20260902230013 97 271 11.3 0.0 0.00 0.00 0.00 6 1006.9
20260902224508 97 288 11.3 0.0 0.00 0.00 0.00 6 1006.9
20260902223008 98 259 11.3 0.0 0.00 0.00 0.00 5 1007.0
20260902221514 98 294 11.3 0.0 0.00 0.00 0.00 6 1007.1
20260902220037 98 253 11.3 0.0 0.00 0.00 0.00 6 1007.2
20260902214505 98 322 9.6 0.0 0.00 0.00 0.00 6 1007.5
20260902213005 98 303 9.6 0.0 0.00 0.00 0.00 5 1007.6
20260902211507 98 306 8.7 0.0 0.00 0.00 0.00 5 1007.5
20260902210002 98 319 7.8 0.0 0.00 0.00 0.00 5 1007.7
20260902204559 98 286 8.7 0.0 0.00 0.00 0.00 6 1008.0
20260902203157 97 284 9.6 0.0 0.00 0.00 0.00 5 1008.2
20260902201555 97 356 3.5 0.0 0.00 0.00 0.00 5 1008.4
20260902200051 96 337 3.5 0.0 0.00 0.00 0.00 5 1008.7
20260902194556 95 202 3.5 0.0 0.00 0.00 0.00 5 1008.8
20260902193048 95 296 2.6 0.0 0.00 0.00 0.00 5 1009.2
20260902191545 94 49 2.6 0.0 0.00 0.00 0.00 5 1009.5
20260902190042 93 41 4.3 0.0 0.00 0.00 0.00 6 1009.7
20260902184552 93 106 2.6 0.0 0.00 0.00 0.00 6 1009.9
20260902183040 92 78 3.5 0.0 0.00 0.00 0.00 6 1010.1
20260902181542 92 59 2.6 0.0 0.00 0.00 0.00 7 1010.3
20260902180045 91 78 3.5 0.0 0.00 0.00 0.00 7 1010.3
20260902174533 90 101 1.7 0.0 0.00 0.00 0.00 8 1010.5
20260902173031 90 135 3.5 0.0 0.00 0.00 0.00 8 1010.4
20260902171530 89 39 2.6 0.0 0.00 0.00 0.00 9 1010.4
20260902170028 89 103 1.7 0.0 0.00 0.00 0.00 9 1010.4
20260902164529 88 138 3.5 0.0 0.00 0.00 0.00 9 1010.4
20260902163025 88 67 1.7 0.0 0.00 0.00 0.00 9 1010.3
20260902161522 87 47 2.6 0.0 0.00 0.00 0.00 13 1010.3
20260902160018 86 35 1.7 0.0 0.00 0.00 0.00 14 1010.4
20260902154525 85 14 1.7 0.0 0.00 0.00 0.00 15 1010.4
20260902153012 84 27 1.7 0.0 0.00 0.00 0.00 15 1010.3
20260902151510 83 73 1.7 0.0 0.00 0.00 0.00 16 1010.3
20260902150010 82 73 1.7 0.0 0.00 0.00 0.00 16 1010.3
20260902144525 81 73 0.9 0.0 0.00 0.00 0.00 17 1010.3
20260902143013 78 197 2.6 0.0 0.00 0.00 0.00 18 1010.3
20260902141515 77 197 3.5 0.0 0.00 0.00 0.00 20 1010.2
20260902140010 75 260 4.3 0.0 0.00 0.00 0.00 21 1010.0
20260902134504 75 202 4.3 0.0 0.00 0.00 0.00 21 1009.8
20260902133002 74 197 5.2 0.0 0.00 0.00 0.00 22 1009.6
20260902131600 73 208 3.5 0.0 0.00 0.00 0.00 23 1009.6
20260902124600 75 218 3.5 0.0 0.00 0.00 0.00 21 1009.4
20260902123100 75 224 4.3 0.0 0.00 0.00 0.00 21 1009.3
20260902123043 75 211 4.3 0.0 0.00 0.00 0.00 21 1009.3
20260902121607 75 224 2.6 0.0 0.00 0.00 0.00 21 1009.2
20260902120055 74 277 2.6 0.0 0.00 0.00 0.00 20 1009.3
20260902114552 75 277 3.5 0.0 0.00 0.00 0.00 19 1009.2
20260902113058 74 277 2.6 0.0 0.00 0.00 0.00 20 1009.2
20260902111551 75 221 2.6 0.0 0.00 0.00 0.00 19 1009.1
20260902110051 75 300 1.7 0.0 0.00 0.00 0.00 19 1009.1
20260902104552 75 300 1.7 0.0 0.00 0.00 0.00 19 1009.0
20260902103043 76 253 2.6 0.0 0.00 0.00 0.00 18 1009.1
20260902101541 76 253 2.6 0.0 0.00 0.00 0.00 17 1009.2
20260902100051 75 253 2.6 0.0 0.00 0.00 0.00 17 1009.2
20260902094604 76 355 1.7 0.0 0.00 0.00 0.00 16 1009.1
20260902093033 78 111 1.7 0.0 0.00 0.00 0.00 15 1009.0